Regional Weather Roundup
Issued by NWS

Home | Current Version | Previous Version | Graphics & Text | Print | Product List | Glossary On
Versions: 1 2 3 4 5 6 7 8 9 10 11 12 13 14 15 16 17 18 19 20 21 22 23 24 25 26 27
000
ASUS45 KBOI 151810
RWRID

IDAHO REGIONAL WEATHER ROUNDUP
NATIONAL WEATHER SERVICE BOISE ID
1200 PM MDT TUE AUG 15 2017

NOTE: "FAIR" INDICATES FEW OR NO CLOUDS BELOW 12000 FEET
WITH NO SIGNIFICANT WEATHER AND/OR OBSTRUCTIONS TO VISIBILITY

IDZ012-014-151900-
SOUTHWEST IDAHO


CITY           SKY/WX    TMP DP  RH WIND       PRES   REMARKS
BOISE          SUNNY     78  42  27 NE6       29.91F
CALDWELL       SUNNY     74  50  42 S5        29.91F
MOUNTAIN HOME  SUNNY     75  53  46 E5        29.92F
$$

IDZ016-017-151900-
SOUTHCENTRAL IDAHO


CITY           SKY/WX    TMP DP  RH WIND       PRES   REMARKS
BURLEY         SUNNY     70  51  51 E3        29.97S
JEROME         SUNNY     72  52  49 CALM      29.97
TWIN FALLS     SUNNY     72  48  43 MISG        N/A
$$

IDZ019>023-151900-
SOUTHEAST IDAHO


CITY           SKY/WX    TMP DP  RH WIND       PRES   REMARKS
IDAHO FALLS    CLOUDY    65  51  60 CALM      30.02F
POCATELLO      MOSUNNY   69  49  48 E5        30.01F
REXBURG        CLOUDY    64  48  56 W3        30.02F
$$

IDZ006-010-011-018-031-032-151900-
CENTRAL IDAHO MOUNTAINS


CITY           SKY/WX    TMP DP  RH WIND       PRES   REMARKS
MCCALL         SUNNY     69  36  29 SW3       29.99S
HAILEY         MOSUNNY   66  52  59 SE8       30.04S
STANLEY        NOT AVBL
SALMON         SUNNY    N/A N/A N/A CALM      29.96F
CHALLIS        SUNNY     68  44  42 E3        29.99F
$$

IDZ002-004-006-007-026-151900-
NORTHERN IDAHO


CITY           SKY/WX    TMP DP  RH WIND       PRES   REMARKS
LEWISTON       SUNNY     74  43  32 NW5       29.91F
LOWELL         NOT AVBL
COEUR D`ALENE  SUNNY     71  41  33 SE3       29.94F
MULLAN PASS    SUNNY     58  31  35 VRB6      30.05S
$$




USA.gov is the U.S. government's official web portal to all federal, state and local government web resources and services.